GLOBALSTAR M048 [-]

Last updated on Fri Dec 29 2023 00:02:56 GMT+0000 (Coordinated Universal Time)

1 25872U 99041A 23361.80502850 -.00000074 00000+0 -11425-3 0 9998 2 25872 51.9333 171.4973 0012537 339.9576 123.1505 11.33842501 64029
UTC large
Height (km)
Speed (km/s)
/
Latitude / Longitude
Inclination (degrees)
Orbital Period (minutes)
Azimuth
Elevation
Range (km)
Doppler Factor

Next 0 passes for location: London (51.5072 / 0.1276)

Sorry there are no passes over London.
GLOBALSTAR M048 [-]